GFSNE_2pvu_pres_159.txt.gz
Presure
261 247 242 239 241 284 308 300 322 274 293 317 350 305 223 195 223 211 192 193 205 183 197 175 172 168 174 184 202 189 175 168 185 174 192 192 185 198
245 224 237 243 253 257 270 310 298 271 278 289 309 343 306 299 184 212 203 186 189 201 194 181 171 176 168 155 155 158 168 167 137 173 193 175 203 185
240 234 246 245 252 233 250 265 308 294 277 275 292 308 346 311 250 225 201 199 189 186 193 148 192 168 179 192 164 200 176 170 153 173 171 173 179 203
237 241 225 251 229 231 249 234 262 280 282 294 279 292 305 338 314 205 213 197 195 190 154 192 191 182 159 186 170 158 161 192 178 150 157 165 173 175
239 237 241 241 222 252 262 245 252 270 290 292 289 290 293 304 331 257 221 214 196 194 189 145 194 190 131 176 168 194 191 180 182 193 193 170 180 193
229 230 236 242 242 247 247 266 247 265 387 484 314 297 292 298 305 322 233 200 214 201 200 195 190 190 142 180 183 157 174 169 146 160 178 162 187 175
232 235 232 241 246 243 253 227 268 281 354 399 369 313 296 294 295 301 296 225 203 209 210 199 187 193 169 134 189 179 164 144 190 164 134 172 162 161
250 260 241 240 231 242 245 254 237 267 331 360 375 315 300 293 292 291 305 286 229 205 203 213 197 191 187 181 182 186 175 207 188 177 162 182 191 159
268 272 276 283 238 239 250 250 268 266 337 326 370 313 298 291 296 291 295 304 272 216 213 198 219 190 186 176 206 186 203 185 161 162 190 172 150 177
257 260 262 266 270 248 256 241 271 262 288 305 225 356 293 185 282 286 283 291 302 224 221 215 204 223 193 188 199 201 187 180 184 188 182 183 182 163
265 260 257 260 263 257 266 244 268 241 265 318 295 315 292 274 283 284 279 291 290 275 226 218 220 182 211 189 169 195 191 180 181 180 182 194 187 161
330 392 301 371 323 258 324 255 251 254 253 310 294 292 316 272 271 277 284 277 290 291 289 222 217 213 204 168 184 190 193 190 178 179 182 183 187 184
352 381 374 369 396 329 332 318 304 256 243 298 288 280 282 300 276 276 279 284 274 281 295 260 221 219 207 204 162 188 203 151 127 187 195 193 193 189
372 373 367 360 365 385 337 345 299 270 265 266 293 290 281 274 291 272 280 277 279 285 293 301 292 220 223 210 205 203 206 205 198 202 193 191 186 199
366 363 356 353 355 367 334 340 302 290 283 274 268 296 285 272 278 280 289 292 269 284 305 293 292 258 225 220 209 206 211 187 203 198 191 201 192 190
369 357 349 347 334 350 354 290 324 291 284 274 265 290 300 270 268 262 263 268 274 284 287 294 294 302 298 238 214 213 205 210 209 201 167 161 192 187
352 350 346 338 333 335 355 355 327 295 283 278 271 261 280 293 280 266 265 270 269 272 283 278 293 292 293 310 269 219 212 207 204 197 198 196 199 190
347 344 336 342 333 326 332 343 353 321 287 279 277 267 258 274 287 269 268 268 274 278 285 294 277 298 296 287 296 310 231 212 205 204 203 200 202 198
344 338 333 332 332 322 336 329 347 345 317 289 277 276 266 259 268 273 273 277 269 266 274 282 278 293 284 298 305 302 263 166 225 207 200 202 204 205
344 344 338 332 328 324 326 331 328 342 342 316 289 278 275 270 263 262 272 270 271 271 274 274 278 277 289 294 291 301 288 311 243 241 210 209 205 203
340 338 351 351 334 329 330 329 334 330 331 343 332 301 277 277 275 272 265 262 274 281 274 272 277 281 287 286 297 284 294 292 309 276 234 221 212 205
363 363 359 353 355 362 360 339 322 329 333 342 338 349 315 283 275 275 273 275 269 266 264 271 285 284 285 291 296 285 300 293 297 244 274 266 240 227
277 279 283 289 293 296 306 319 370 378 342 307 332 353 341 351 314 303 283 280 282 280 272 267 275 272 278 285 287 290 269 309 300 300 243 288 244 275

GFSNE_2pvu_pres_165.txt.gz
Presure
262 266 253 267 249 256 247 243 247 251 265 259 302 288 268 286 301 299 289 276 260 207 193 190 181 188 179 185 172 172 170 167 186 185 173 198 175 160
267 266 249 245 251 245 245 235 244 241 246 262 253 316 290 283 288 304 307 297 244 236 206 205 185 185 188 189 179 183 184 172 166 192 178 151 186 185
254 263 250 252 261 250 245 242 237 235 236 247 246 259 302 291 311 294 306 316 276 244 219 204 201 188 187 196 191 179 175 183 177 181 194 204 169 173
246 255 248 270 242 254 241 231 247 232 235 251 246 264 253 290 304 332 296 307 303 268 217 208 204 177 190 191 214 195 180 194 178 172 130 177 203 190
243 253 249 285 267 251 240 242 234 249 249 237 241 243 253 262 283 309 304 292 305 265 246 215 218 201 194 178 188 192 210 194 184 193 179 171 137 196
240 260 276 277 264 254 249 239 243 237 251 239 239 240 244 253 266 284 312 277 289 308 267 220 203 206 196 197 189 193 164 186 182 178 147 179 193 171
263 260 256 263 269 252 241 244 238 251 242 250 251 237 246 244 250 267 278 304 278 285 305 261 219 206 210 208 195 175 186 193 199 189 186 145 141 169
250 251 249 252 249 257 263 247 247 243 246 248 247 256 240 239 268 249 265 273 296 295 290 307 304 209 204 210 212 204 199 196 195 191 208 201 190 142
246 247 249 253 256 262 266 267 254 262 252 266 257 264 249 263 245 245 248 264 276 290 319 290 313 223 208 203 212 213 203 209 200 185 193 194 187 141
239 240 241 242 243 248 253 255 260 264 266 268 274 281 287 276 256 242 241 253 263 265 290 299 300 273 215 198 206 211 197 195 192 190 188 205 190 173
241 246 247 257 265 257 254 265 273 267 266 266 266 273 282 284 283 292 262 246 251 262 274 290 309 309 264 213 200 203 199 193 192 202 193 205 189 186
255 265 268 283 295 307 321 346 356 348 341 346 352 266 278 281 281 265 251 275 281 253 259 253 293 309 311 271 221 208 203 203 206 211 197 203 198 190
262 275 292 306 312 338 394 422 410 405 400 390 394 418 298 277 280 280 282 281 277 341 314 337 295 297 298 287 262 217 217 205 204 188 204 194 203 194
278 292 303 310 336 421 404 397 399 389 386 377 375 398 349 274 269 276 280 270 279 292 345 320 292 283 294 280 287 265 225 151 209 204 211 213 202 200
283 294 303 316 354 404 387 389 378 388 375 366 366 378 365 312 268 273 277 271 273 255 311 319 289 289 284 293 287 289 262 230 227 212 213 202 202 213
288 297 307 321 364 398 381 369 369 363 370 362 357 353 366 355 320 270 269 266 272 276 267 309 309 283 289 286 287 277 291 265 236 226 219 211 206 204
292 299 313 338 356 389 375 367 361 357 355 358 354 348 367 338 341 315 304 265 271 267 274 302 305 316 283 283 280 285 275 279 250 257 230 228 224 217
297 306 324 345 349 347 381 362 360 360 353 355 351 349 340 360 343 307 304 280 267 277 265 262 304 306 318 284 281 281 290 286 281 269 285 245 229 223
301 314 342 348 362 346 352 378 358 354 357 360 350 361 342 341 364 340 288 303 287 267 276 275 286 294 289 297 313 283 288 285 282 284 279 278 285 242
314 328 351 366 418 333 326 340 357 374 357 363 363 352 360 347 334 362 335 290 301 289 276 292 276 267 299 289 283 291 298 283 279 282 269 291 274 273
330 353 376 405 403 330 297 288 290 311 319 330 346 377 383 364 354 341 359 352 300 301 291 284 278 271 287 278 290 296 285 282 286 289 285 280 273 290
358 408 393 373 372 332 298 288 281 279 281 285 300 308 316 326 345 382 362 347 372 326 284 297 290 280 284 272 283 280 292 294 300 307 300 283 279 280
414 383 354 347 345 322 307 294 290 285 279 274 276 281 283 294 304 310 323 345 377 375 361 332 299 297 286 300 277 275 282 281 286 292 285 287 293 292

GFSNE_2pvu_pres_168.txt.gz
Presure
260 261 252 241 266 264 259 258 254 252 249 256 260 254 270 266 277 280 300 282 311 294 288 252 203 186 178 179 188 181 168 189 161 176 187 181 188 184
277 253 252 242 265 260 260 252 252 248 252 244 251 249 244 271 277 274 281 296 290 309 286 263 209 199 186 187 186 182 185 165 168 192 200 194 176 182
269 253 248 246 241 261 257 251 263 247 252 246 248 249 252 251 269 295 272 282 288 302 276 294 224 192 192 187 180 181 182 180 168 171 170 195 190 184
267 256 248 243 240 252 271 251 242 232 251 245 248 250 243 250 249 285 300 270 287 297 306 308 228 206 204 184 192 178 181 173 177 180 181 174 164 178
263 255 251 244 243 238 242 247 231 249 259 249 246 241 240 240 247 249 272 305 272 288 306 315 262 221 201 196 181 207 179 191 176 179 181 197 177 188
274 258 247 247 241 242 241 244 237 292 268 249 250 243 240 239 239 250 250 275 296 303 323 315 286 225 216 203 192 185 189 183 188 193 206 182 173 188
259 260 262 264 258 256 258 257 265 281 273 263 248 245 250 247 242 258 250 258 273 290 320 357 318 267 218 225 200 193 192 193 183 181 188 190 179 179
250 251 253 254 255 255 254 256 256 258 275 277 256 248 248 259 244 245 244 250 257 275 292 326 311 267 238 215 209 196 198 184 196 193 187 192 190 194
244 242 243 244 246 247 250 252 257 263 267 269 265 258 252 247 253 252 242 245 249 262 277 295 300 303 309 227 212 207 202 200 191 192 190 192 180 165
237 236 235 235 236 238 240 242 244 251 256 266 276 278 264 262 246 254 249 260 248 248 263 274 295 285 297 272 226 216 208 203 196 195 178 187 192 179
231 231 231 234 246 247 247 252 260 267 269 258 264 266 274 290 283 270 263 259 264 255 249 263 278 284 286 296 231 223 216 210 197 201 201 195 184 172
228 232 245 251 255 265 278 291 309 326 336 362 367 445 313 274 270 280 288 264 292 269 254 250 263 281 289 282 293 243 221 215 219 204 205 197 196 199
239 243 245 246 271 281 290 304 319 344 429 431 427 418 416 409 386 295 274 275 284 294 265 250 265 262 275 288 300 303 251 216 201 214 209 215 209 213
240 245 254 264 284 288 300 312 327 371 416 404 400 405 396 390 391 384 368 270 279 281 291 284 251 249 259 274 289 293 317 257 217 205 218 215 203 208
249 250 259 279 286 296 305 318 335 361 393 388 382 388 382 377 370 373 393 384 371 301 285 291 292 251 252 259 268 293 286 278 300 222 216 220 214 211
245 252 269 280 291 300 310 327 353 353 364 387 375 369 373 375 363 358 380 371 356 319 278 285 292 280 284 252 275 266 287 292 292 289 230 218 221 211
252 260 275 280 301 306 326 352 359 351 366 378 368 366 362 366 365 360 364 356 351 327 278 281 286 289 252 279 278 264 261 272 283 291 294 242 226 217
256 267 276 301 308 329 366 368 367 404 367 371 370 363 360 357 360 369 351 366 351 325 324 277 279 281 286 270 274 315 315 301 262 286 289 286 258 227
260 271 290 311 329 376 378 422 412 419 339 351 378 364 366 362 355 361 358 353 349 342 318 306 270 278 281 262 272 266 307 314 306 256 271 301 276 286
262 276 307 324 379 401 408 386 387 404 326 325 339 362 367 368 373 364 361 353 364 347 301 314 315 271 274 277 271 277 304 307 309 285 276 270 276 271
273 294 317 376 396 397 370 361 368 359 309 295 289 304 321 330 348 381 368 362 365 369 346 329 305 315 280 271 273 275 278 263 312 304 284 286 281 274
281 310 353 368 395 366 345 342 348 333 307 295 289 283 281 294 309 317 329 340 364 384 363 377 341 307 311 294 281 275 275 280 260 314 310 294 288 284
304 342 382 397 366 344 329 325 326 323 314 304 295 292 289 280 280 288 299 314 319 331 345 380 364 379 297 278 304 296 281 280 291 273 268 320 312 292

GFSNE_2pvu_pres_171.txt.gz
Presure
371 385 375 275 275 262 251 252 265 264 263 260 264 258 262 262 270 273 270 280 291 294 300 311 304 250 226 193 188 194 192 168 163 175 122 170 178 168
353 352 342 274 262 257 253 248 261 261 259 260 261 255 252 254 261 263 266 278 279 289 293 304 308 274 228 209 196 191 178 165 158 169 195 173 152 165
323 334 317 282 257 250 251 249 241 260 257 258 253 258 251 249 254 257 261 267 276 280 292 293 309 300 319 219 200 195 185 175 176 167 197 178 177 171
297 307 293 278 261 249 242 250 241 249 258 260 254 251 256 249 253 249 255 254 268 274 284 298 292 310 311 227 210 204 201 189 187 192 181 164 180 203
271 284 277 263 255 247 243 239 240 237 246 259 252 254 272 255 253 251 251 255 257 290 272 280 290 295 329 241 213 204 196 203 183 181 174 181 183 170
257 265 273 263 251 248 245 242 241 237 237 233 261 250 239 249 255 252 250 251 247 255 302 270 290 293 309 252 224 213 207 192 202 182 201 191 192 176
251 253 254 257 262 263 257 245 249 251 246 245 239 247 257 243 260 256 252 252 249 250 259 281 272 293 297 314 223 218 216 206 193 196 198 186 192 160
248 247 245 247 250 252 254 255 255 258 260 261 269 269 272 278 293 268 244 251 237 253 248 264 282 280 295 303 231 217 207 207 206 192 195 182 199 176
247 245 246 247 245 244 244 243 245 248 252 255 261 267 267 265 276 287 267 249 252 243 253 248 268 286 289 313 297 228 211 212 198 198 192 192 181 179
248 243 236 238 235 232 235 237 237 239 242 244 249 252 256 264 274 277 286 272 253 256 246 253 255 267 283 299 297 236 225 207 221 204 200 189 191 177
237 238 238 236 231 230 231 232 244 248 250 253 256 259 265 268 267 268 282 286 272 251 257 262 259 252 269 283 303 296 229 221 207 206 207 200 192 188
238 236 231 229 230 234 241 242 243 254 287 305 317 321 327 361 433 297 272 282 291 277 263 258 248 259 255 273 283 308 255 226 220 208 209 200 193 197
229 226 227 231 236 235 233 251 261 284 294 316 326 333 359 399 442 437 437 356 276 288 289 272 261 261 260 257 272 287 308 230 221 223 206 211 194 199
224 228 234 232 228 237 242 254 270 282 313 324 332 354 377 380 411 414 419 412 400 297 288 286 278 271 259 251 258 275 285 308 235 219 225 211 209 201
231 234 230 231 239 244 248 266 271 294 325 336 370 378 372 369 394 390 399 395 391 398 340 270 307 281 274 260 252 257 273 283 300 238 226 223 221 208
233 231 233 237 242 253 255 268 281 317 341 394 388 378 369 369 382 382 382 381 383 381 380 384 285 288 298 287 278 260 126 270 280 299 236 229 215 227
228 230 229 241 245 252 264 273 302 335 397 438 436 424 386 381 382 376 370 375 374 364 365 367 379 367 282 286 291 293 274 259 270 280 287 258 231 225
226 226 236 240 253 254 264 284 333 393 428 406 400 408 419 354 378 374 370 367 372 367 362 362 362 365 358 281 284 284 291 275 259 267 271 281 290 248
226 229 243 248 250 264 274 324 363 420 391 372 381 402 347 350 365 376 367 372 364 372 361 347 361 347 358 348 332 282 283 289 259 263 262 271 277 291
229 237 241 251 259 267 294 372 405 391 364 355 369 357 326 326 340 358 364 370 375 369 364 372 361 350 341 347 330 324 283 286 283 261 260 262 265 279
239 241 251 255 265 285 407 411 395 367 344 341 354 328 311 301 296 310 323 334 354 377 387 374 369 367 346 343 334 318 314 285 285 293 288 257 246 260
239 247 255 263 275 433 416 397 372 351 334 329 333 329 312 301 293 293 289 302 313 323 337 362 369 387 367 352 347 328 312 282 284 289 291 282 286 253
248 251 257 266 300 406 394 373 356 337 325 321 320 322 321 313 305 296 292 288 284 295 308 320 334 342 378 386 383 343 321 313 282 287 288 290 277 282